User: anonymous   Login
Location: Caltech
(34.1382°N, 118.1253°W)
Time: 07:50:24
(UTC-07:00)
Language:

Gbstr 26 Del rocket - Orbit

View from above orbital plane
View from above orbital plane
View from above satellite
View from above satellite

Ground track
Ground track

The orbit data is extracted from the following two-line orbital elements,

1 25876U 99041E   15245.49677803  .00000104  00000-0  57526-4 0  9996
2 25876  51.7695  14.8818 0534151 283.6406  70.5604 14.03388785822798
Epoch (UTC): 02 September 2015 11:55:21
Eccentricity: 0.0534151
inclination: 51.7695°
perigee height: 494 km
apogee height: 1270 km
right ascension of ascending node: 14.8818°
argument of perigee: 283.6406°
revolutions per day: 14.03388785
mean anomaly at epoch: 70.5604°
orbit number at epoch: 82279

The dashed part of the orbit path shows where the satellite is in the earth's shadow,  

DLR